Simultaneous Nadir Overpasses (SNOs) Predictions

Prediction of SNOs between GOES-16 and TERRA Satellite Orbit:

Table of predicted SNOs for the next 14.0 days since TLE Epoch: 3/19/2022
Index Date Time (GOES-16) GOES-16 Lat,Lon TERRA Lat,Lon Distance(km) Time Diff (sec)
1 03/20/2022 15:21:29 0.06, -75.23 0.05, -75.27 4.48 80
2 03/22/2022 15:11:53 0.06, -75.24 -0.54, -72.30 333.30 80
3 03/23/2022 03:33:17 -0.06, -75.23 -0.52, -77.51 258.99 80
4 03/25/2022 03:18:21 -0.05, -75.23 0.07, -74.54 78.15 80
5 03/27/2022 03:06:06 -0.05, -75.24 0.74, -71.59 415.74 80
6 03/27/2022 15:27:20 0.05, -75.27 0.39, -76.74 168.28 80
7 03/29/2022 15:17:45 0.05, -75.29 -0.28, -73.79 170.67 80
8 03/30/2022 03:39:08 -0.05, -75.28 -0.82, -78.98 420.72 80
9 04/01/2022 03:26:52 -0.04, -75.31 -0.20, -76.02 80.50 80
